Regional Weather Roundup
Issued by NWS

Home | Current Version | Previous Version | Graphics & Text | Print | Product List | Glossary On
Versions: 1 2 3 4 5 6 7 8 9 10 11 12 13 14 15 16 17 18 19 20 21 22 23 24 25 26 27 28 29 30 31 32 33 34 35 36 37 38 39 40 41 42 43 44 45 46 47 48 49 50
000
ASUS43 KBIS 240010
RWRND

NORTH DAKOTA REGIONAL WEATHER ROUNDUP
NATIONAL WEATHER SERVICE BISMARCK ND
700 PM CDT WED APR 23 2014

NOTE: "FAIR" INDICATES FEW OR NO CLOUDS BELOW 12,000 FEET WITH NO
SIGNIFICANT WEATHER AND/OR OBSTRUCTIONS TO VISIBILITY.


NDZ001>003-009>011-017-240100-
NORTHWEST NORTH DAKOTA

CITY           SKY/WX    TMP DP  RH WIND       PRES   REMARKS
WILLISTON      CLOUDY    53  40  61 NW10      29.57S
6HR MIN TEMP:  46; 6HR MAX TEMP:  58; 6HR PCP:  0.09;

MINOT          CLOUDY    45  42  89 SE14      29.59R
MINOT AFB      CLOUDY    44  44  99 SE14G25   29.60R
$$

NDZ018>021-031>035-040>046-240100-
SOUTHWEST NORTH DAKOTA

CITY           SKY/WX    TMP DP  RH WIND       PRES   REMARKS
BISMARCK       CLOUDY    53  40  61 W20G29    29.63R
6HR MIN TEMP:  53; 6HR MAX TEMP:  58; 6HR PCP:  0.01;

DICKINSON      MOSUNNY   55  27  34 W23G29    29.61R
GARRISON         N/A     46  42  86 NW15      29.60R
6HR MIN TEMP:  46; 6HR MAX TEMP:  58; 6HR PCP:  0.09;

HETTINGER ARPT MOSUNNY   53  32  44 W21G31    29.66R
$$

NDZ004>008-012>016-024-026-027-054-240100-
NORTHEAST NORTH DAKOTA

CITY           SKY/WX    TMP DP  RH WIND       PRES   REMARKS
GRAND FORKS    LGT RAIN  42  39  89 SE24G30   29.85S
GRND FRKS AFB  LGT RAIN  41  41 100 SE20G26   29.83S
DEVILS LAKE    CLOUDY    37  32  81 SE24      29.73R
$$

NDZ022-023-025-028>030-036>039-047>053-240100-
SOUTHEAST NORTH DAKOTA

CITY           SKY/WX    TMP DP  RH WIND       PRES   REMARKS
FARGO          LGT RAIN  42  38  85 SE22G29   29.80F
6HR MIN TEMP:  42; 6HR MAX TEMP:  44; 6HR PCP:  0.07;

JAMESTOWN      CLOUDY    41  39  93 SE21G29   29.69R
$$




USA.gov is the U.S. government's official web portal to all federal, state and local government web resources and services.